Weather History for KIPT - October, 2013

Change the Weather History Date:

Tuesday, October 15, 2013

  Actual Average Record
Temperature  
Mean Temperature 61 °F 52 °F  
Max Temperature 72 °F 62 °F 82 °F (1975)
Min Temperature 49 °F 42 °F 28 °F (1937)
Degree Days  
Heating Degree Days 4 13  
Month to date heating degree days 60 162  
Since 1 July heating degree days 186 290  
Cooling Degree Days 0 0  
Month to date cooling degree days 30 1  
Year to date cooling degree days 863 698  
Growing Degree Days 10 (Base 50)    
Moisture  
Dew Point 50 °F    
Average Humidity 72    
Maximum Humidity 100    
Minimum Humidity 44    
Precipitation  
Precipitation 0.00 in 0.11 in 1.55 in (2014)
Month to date precipitation 2.02 1.75  
Year to date precipitation 25.24 32.94  
Snow  
Snow 0.00 in - - ()
Month to date snowfall 0.0  
Since 1 July snowfall 0.0  
Since 1 September snowfall 0.0  
Snow Depth 0.00 in    
Sea Level Pressure  
Sea Level Pressure 30.19 in    
Wind  
Wind Speed 4 mph (SE)    
Max Wind Speed 13 mph    
Max Gust Speed 17 mph    
Visibility 5 miles    
Events Fog    
T = Trace of Precipitation, MM = Missing Value Source: NWS Daily Summary

Daily Weather History Graph

Daily Weather History Graph

Search for Another Location

Airport or City:

Trip Planner

Search our weather history database for the weather conditions in past years. The results will help you decide how hot, cold, wet, or windy it might be!

Date:

Astronomy

Oct. 15, 2013 Rise Set
Actual Time 7:19 AM EDT 6:26 PM EDT
Civil Twilight 6:51 AM EDT 6:54 PM EDT
Nautical Twilight 6:19 AM EDT 7:26 PM EDT
Astronomical Twilight 5:47 AM EDT 7:58 PM EDT
Moon 4:32 PM EDT (10/15) 3:37 AM EDT (10/15)
Length of Visible Light 12h 02m
Length of Day
11h 06m
Waxing Gibbous, 87% of the Moon is Illuminated
Oct 15
Waxing Gibbous
Oct 18
Full
Oct 26
Last Quarter
Nov 3
New
Nov 10
First Quarter

Hourly Weather History & Observations

Time (EDT) Temp. Dew Point Humidity Pressure Visibility Wind Dir Wind Speed Gust Speed Precip Events Conditions
12:54 AM 57.0 °F 54.0 °F 89% 30.25 in 10.0 mi Calm Calm - N/A   Overcast
1:54 AM 55.9 °F 53.1 °F 90% 30.24 in 10.0 mi Calm Calm - N/A   Partly Cloudy
2:54 AM 52.0 °F 51.1 °F 97% 30.24 in 4.0 mi Calm Calm - N/A   Clear
3:09 AM 53.6 °F 51.8 °F 94% 30.24 in 1.5 mi Calm Calm - N/A   Clear
3:12 AM 53.6 °F 51.8 °F 94% 30.24 in 0.5 mi Calm Calm - N/A Fog Fog
3:22 AM 51.8 °F 51.8 °F 100% 30.23 in 1.0 mi Calm Calm - N/A   Clear
3:25 AM 51.8 °F 51.8 °F 100% 30.23 in 0.8 mi Calm Calm - N/A   Mist
3:48 AM 51.8 °F 50.0 °F 94% 30.23 in 1.2 mi Calm Calm - N/A   Partly Cloudy
3:51 AM 51.8 °F 50.0 °F 94% 30.23 in 3.0 mi Calm Calm - N/A   Partly Cloudy
3:54 AM 51.1 °F 50.0 °F 96% 30.23 in 4.0 mi Calm Calm - N/A   Partly Cloudy
3:59 AM 51.8 °F 50.0 °F 94% 30.23 in 1.5 mi Calm Calm - N/A   Partly Cloudy
4:12 AM 51.8 °F 51.8 °F 100% 30.23 in 0.8 mi Calm Calm - N/A   Mist
4:28 AM 51.8 °F 50.0 °F 94% 30.22 in 1.2 mi Calm Calm - N/A   Partly Cloudy
4:31 AM 51.8 °F 51.8 °F 100% 30.22 in 3.0 mi Calm Calm - N/A   Clear
4:36 AM 51.8 °F 51.8 °F 100% 30.22 in 1.8 mi Calm Calm - N/A   Partly Cloudy
4:38 AM 50.0 °F 50.0 °F 100% 30.22 in 0.8 mi Calm Calm - N/A   Mist
4:54 AM 51.1 °F 50.0 °F 96% 30.22 in 0.5 mi Calm Calm - N/A Fog Fog
5:01 AM 51.8 °F 50.0 °F 94% 30.22 in 2.0 mi Calm Calm - N/A   Partly Cloudy
5:09 AM 51.8 °F 50.0 °F 94% 30.22 in 9.0 mi Calm Calm - N/A   Partly Cloudy
5:54 AM 50.0 °F 48.9 °F 96% 30.22 in 10.0 mi Calm Calm - N/A   Mostly Cloudy
6:54 AM 50.0 °F 48.0 °F 93% 30.23 in 4.0 mi Calm Calm - N/A   Partly Cloudy
7:11 AM 48.2 °F 48.2 °F 100% 30.23 in 9.0 mi Calm Calm - N/A   Scattered Clouds
7:18 AM 50.0 °F 48.2 °F 94% 30.23 in 2.0 mi Calm Calm - N/A   Mostly Cloudy
7:20 AM 48.2 °F 48.2 °F 100% 30.23 in 0.5 mi Calm Calm - N/A Fog Fog
7:27 AM 48.2 °F 48.2 °F 100% 30.23 in 0.2 mi Calm Calm - N/A Fog Fog
7:54 AM 51.1 °F 50.0 °F 96% 30.24 in 0.2 mi Calm Calm - N/A Fog Fog
8:32 AM 51.8 °F 50.0 °F 94% 30.24 in 1.0 mi Calm Calm - N/A   Mist
8:44 AM 51.8 °F 50.0 °F 94% 30.24 in 0.2 mi Calm Calm - N/A Fog Fog
8:54 AM 51.1 °F 51.1 °F 100% 30.24 in 0.2 mi Calm Calm - N/A Fog Fog
9:02 AM 51.8 °F 51.8 °F 100% 30.23 in 1.0 mi Calm Calm - N/A   Mist
9:07 AM 53.6 °F 51.8 °F 94% 30.23 in 3.0 mi Calm Calm - N/A   Mostly Cloudy
9:24 AM 53.6 °F 53.6 °F 100% 30.24 in 6.0 mi Calm Calm - N/A   Mostly Cloudy
9:54 AM 57.0 °F 53.1 °F 87% 30.24 in 10.0 mi Calm Calm - N/A   Mostly Cloudy
10:54 AM 63.0 °F 54.0 °F 72% 30.22 in 10.0 mi SSE 4.6 mph - N/A   Scattered Clouds
11:54 AM 66.9 °F 53.1 °F 61% 30.19 in 10.0 mi SE 6.9 mph - N/A   Scattered Clouds
12:54 PM 69.1 °F 51.1 °F 53% 30.17 in 10.0 mi SSE 9.2 mph - N/A   Partly Cloudy
1:54 PM 70.0 °F 48.9 °F 47% 30.14 in 10.0 mi SE 9.2 mph - N/A   Partly Cloudy
2:54 PM 71.1 °F 50.0 °F 47% 30.12 in 10.0 mi South 8.1 mph - N/A   Partly Cloudy
3:54 PM 71.1 °F 48.9 °F 45% 30.10 in 10.0 mi SE 8.1 mph - N/A   Scattered Clouds
4:54 PM 71.1 °F 48.9 °F 45% 30.08 in 10.0 mi SSW 4.6 mph 17.3 mph N/A   Scattered Clouds
5:54 PM 69.1 °F 48.9 °F 49% 30.08 in 10.0 mi Calm Calm - N/A   Clear
6:54 PM 66.9 °F 48.9 °F 52% 30.08 in 10.0 mi South 8.1 mph - N/A   Clear
7:54 PM 63.0 °F 50.0 °F 63% 30.09 in 10.0 mi East 5.8 mph - N/A   Clear
8:54 PM 64.9 °F 48.9 °F 56% 30.09 in 10.0 mi NE 5.8 mph - N/A   Clear
9:54 PM 64.0 °F 46.9 °F 54% 30.09 in 10.0 mi ENE 6.9 mph - N/A   Clear
10:54 PM 62.1 °F 46.0 °F 56% 30.07 in 10.0 mi ENE 8.1 mph - N/A   Clear
11:54 PM 60.1 °F 46.9 °F 62% 30.06 in 10.0 mi Variable 3.5 mph - N/A   Clear